Time,TemperatureF,DewpointF,PressureIn,WindDirection,WindDirectionDegrees,WindSpeedMPH,WindSpeedGustMPH,Humidity,HourlyPrecipIn,Conditions,Clouds,dailyrainin,SoftwareType,DateUTC
2013-03-25 00:02:00,32.0,25.0,29.66,NNE,27,5.0,9.0,75,0.00,,,0.00,,2013-03-25 04:02:00,
2013-03-25 00:12:00,32.0,25.0,29.66,NNE,27,5.0,9.0,75,0.00,,,0.00,,2013-03-25 04:12:00,
2013-03-25 00:22:00,32.0,25.0,29.66,NNE,29,4.0,13.0,75,0.00,,,0.00,,2013-03-25 04:22:00,
2013-03-25 00:33:00,32.0,25.0,29.66,ENE,57,7.0,13.0,76,0.00,,,0.00,,2013-03-25 04:33:00,
2013-03-25 00:43:00,32.0,25.0,29.66,ENE,57,7.0,13.0,76,0.00,,,0.00,,2013-03-25 04:43:00,
2013-03-25 00:52:00,32.0,25.0,29.66,NNE,17,6.0,10.0,76,0.00,,,0.00,,2013-03-25 04:52:00,
2013-03-25 01:03:00,32.0,25.0,29.66,North,5,5.0,15.0,75,0.00,,,0.00,,2013-03-25 05:03:00,
2013-03-25 01:12:00,32.0,25.0,29.66,North,5,5.0,15.0,75,0.00,,,0.00,,2013-03-25 05:12:00,
2013-03-25 01:22:00,32.0,25.0,29.65,NNE,15,6.0,9.0,75,0.00,,,0.00,,2013-03-25 05:22:00,
2013-03-25 01:32:00,31.0,24.0,29.65,NNE,29,6.0,13.0,76,0.00,,,0.00,,2013-03-25 05:32:00,
2013-03-25 01:42:00,31.0,24.0,29.65,NNE,29,6.0,13.0,76,0.00,,,0.00,,2013-03-25 05:42:00,
2013-03-25 01:52:00,31.0,24.0,29.65,NE,55,9.0,15.0,75,0.00,,,0.00,,2013-03-25 05:52:00,
2013-03-25 02:02:00,31.0,24.0,29.66,NW,326,5.0,14.0,76,0.00,,,0.00,,2013-03-25 06:02:00,
2013-03-25 02:12:00,31.0,24.0,29.66,NW,326,5.0,14.0,76,0.00,,,0.00,,2013-03-25 06:12:00,
2013-03-25 02:22:00,31.0,24.0,29.65,NNE,17,4.0,12.0,76,0.00,,,0.00,,2013-03-25 06:22:00,
2013-03-25 02:32:00,31.0,25.0,29.65,North,10,6.0,11.0,77,0.00,,,0.00,,2013-03-25 06:32:00,
2013-03-25 02:42:00,31.0,25.0,29.65,North,10,6.0,11.0,77,0.00,,,0.00,,2013-03-25 06:42:00,
2013-03-25 02:52:00,31.0,25.0,29.65,NNE,17,4.0,8.0,77,0.00,,,0.00,,2013-03-25 06:52:00,
2013-03-25 03:02:00,31.0,25.0,29.65,NNE,32,5.0,9.0,78,0.00,,,0.00,,2013-03-25 07:02:00,
2013-03-25 03:12:00,31.0,25.0,29.65,NNE,32,5.0,9.0,78,0.00,,,0.00,,2013-03-25 07:12:00,
2013-03-25 03:22:00,31.0,25.0,29.65,NNE,32,5.0,9.0,78,0.00,,,0.00,,2013-03-25 07:22:00,
2013-03-25 03:32:00,30.0,25.0,29.65,NNW,344,5.0,12.0,80,0.00,,,0.00,,2013-03-25 07:32:00,
2013-03-25 03:42:00,30.0,25.0,29.65,NNW,344,5.0,12.0,80,0.00,,,0.00,,2013-03-25 07:42:00,
2013-03-25 03:53:00,31.0,25.0,29.65,NNE,23,4.0,9.0,79,0.00,,,0.00,,2013-03-25 07:53:00,
2013-03-25 04:02:00,31.0,25.0,29.65,NNW,347,4.0,11.0,78,0.00,,,0.00,,2013-03-25 08:02:00,
2013-03-25 04:12:00,31.0,25.0,29.65,NNW,347,4.0,11.0,78,0.00,,,0.00,,2013-03-25 08:12:00,
2013-03-25 04:22:00,31.0,25.0,29.65,NNE,18,4.0,14.0,78,0.00,,,0.00,,2013-03-25 08:22:00,
2013-03-25 04:32:00,31.0,25.0,29.65,North,5,5.0,10.0,78,0.00,,,0.00,,2013-03-25 08:32:00,
2013-03-25 04:42:00,31.0,25.0,29.65,North,5,5.0,10.0,78,0.00,,,0.00,,2013-03-25 08:42:00,
2013-03-25 04:52:00,31.0,25.0,29.65,NNW,340,4.0,14.0,78,0.00,,,0.00,,2013-03-25 08:52:00,
2013-03-25 05:02:00,31.0,25.0,29.65,NNE,15,3.0,12.0,79,0.00,,,0.00,,2013-03-25 09:02:00,
2013-03-25 05:12:00,31.0,25.0,29.65,NNE,15,3.0,12.0,79,0.00,,,0.00,,2013-03-25 09:12:00,
2013-03-25 05:22:00,31.0,25.0,29.65,NNE,23,2.0,12.0,79,0.00,,,0.00,,2013-03-25 09:22:00,
2013-03-25 05:33:00,31.0,25.0,29.65,NNE,22,3.0,9.0,79,0.00,,,0.00,,2013-03-25 09:33:00,
2013-03-25 05:43:00,31.0,25.0,29.65,NNE,22,3.0,9.0,79,0.00,,,0.00,,2013-03-25 09:43:00,
2013-03-25 05:52:00,31.0,25.0,29.64,North,9,2.0,10.0,79,0.00,,,0.00,,2013-03-25 09:52:00,
2013-03-25 06:03:00,31.0,25.0,29.65,North,355,5.0,10.0,79,0.00,,,0.00,,2013-03-25 10:03:00,
2013-03-25 06:12:00,31.0,25.0,29.65,North,355,5.0,10.0,79,0.00,,,0.00,,2013-03-25 10:12:00,
2013-03-25 06:22:00,31.0,25.0,29.65,North,350,5.0,8.0,79,0.00,,,0.00,,2013-03-25 10:22:00,
2013-03-25 06:32:00,31.0,26.0,29.65,North,355,4.0,9.0,80,0.00,,,0.00,,2013-03-25 10:32:00,
2013-03-25 06:42:00,31.0,26.0,29.65,North,355,4.0,9.0,80,0.00,,,0.00,,2013-03-25 10:42:00,
2013-03-25 06:53:00,31.0,26.0,29.65,NNE,12,4.0,12.0,80,0.00,,,0.00,,2013-03-25 10:53:00,
2013-03-25 07:03:00,31.0,26.0,29.65,NNW,327,6.0,11.0,80,0.00,,,0.00,,2013-03-25 11:03:00,
2013-03-25 07:12:00,31.0,26.0,29.65,NNW,327,6.0,11.0,80,0.00,,,0.00,,2013-03-25 11:12:00,
2013-03-25 07:23:00,31.0,26.0,29.66,North,355,4.0,13.0,81,0.00,,,0.00,,2013-03-25 11:23:00,
2013-03-25 07:32:00,31.0,26.0,29.66,NNW,342,5.0,10.0,81,0.00,,,0.00,,2013-03-25 11:32:00,
2013-03-25 07:42:00,31.0,26.0,29.66,NNW,342,5.0,10.0,81,0.00,,,0.00,,2013-03-25 11:42:00,
2013-03-25 07:52:00,31.0,26.0,29.67,NNW,344,4.0,9.0,81,0.00,,,0.00,,2013-03-25 11:52:00,
2013-03-25 08:02:00,31.0,26.0,29.67,NNW,348,4.0,10.0,80,0.00,,,0.00,,2013-03-25 12:02:00,
2013-03-25 08:13:00,31.0,26.0,29.67,NNW,348,4.0,10.0,80,0.00,,,0.00,,2013-03-25 12:13:00,
2013-03-25 08:23:00,31.0,26.0,29.67,NNW,348,5.0,11.0,81,0.00,,,0.00,,2013-03-25 12:23:00,
2013-03-25 08:32:00,32.0,27.0,29.68,NNW,342,6.0,10.0,81,0.00,,,0.00,,2013-03-25 12:32:00,
2013-03-25 08:42:00,32.0,27.0,29.68,NNW,342,6.0,10.0,81,0.00,,,0.00,,2013-03-25 12:42:00,
2013-03-25 08:53:00,32.0,27.0,29.68,NNW,337,5.0,10.0,81,0.00,,,0.00,,2013-03-25 12:53:00,
2013-03-25 09:02:00,32.0,27.0,29.69,NNW,331,4.0,9.0,80,0.00,,,0.00,,2013-03-25 13:02:00,
2013-03-25 09:13:00,32.0,27.0,29.69,NNW,331,4.0,9.0,80,0.00,,,0.00,,2013-03-25 13:13:00,
2013-03-25 09:22:00,32.0,27.0,29.69,North,355,3.0,10.0,80,0.00,,,0.00,,2013-03-25 13:22:00,
2013-03-25 09:32:00,32.0,27.0,29.70,NNW,337,4.0,8.0,80,0.00,,,0.00,,2013-03-25 13:32:00,
2013-03-25 09:42:00,32.0,27.0,29.70,NNW,337,4.0,8.0,80,0.00,,,0.00,,2013-03-25 13:42:00,
2013-03-25 09:52:00,32.0,27.0,29.70,NNE,22,4.0,12.0,80,0.00,,,0.00,,2013-03-25 13:52:00,
2013-03-25 10:03:00,32.0,27.0,29.71,NNW,338,5.0,10.0,80,0.00,,,0.00,,2013-03-25 14:03:00,
2013-03-25 10:12:00,32.0,27.0,29.71,NNW,338,5.0,10.0,80,0.00,,,0.00,,2013-03-25 14:12:00,
2013-03-25 10:22:00,33.0,27.0,29.71,NNW,342,6.0,11.0,79,0.00,,,0.00,,2013-03-25 14:22:00,
2013-03-25 10:32:00,32.0,27.0,29.72,North,9,4.0,11.0,80,0.00,,,0.00,,2013-03-25 14:32:00,
2013-03-25 10:42:00,32.0,27.0,29.72,North,9,4.0,11.0,80,0.00,,,0.00,,2013-03-25 14:42:00,
2013-03-25 10:52:00,33.0,27.0,29.72,NNW,333,6.0,11.0,79,0.00,,,0.00,,2013-03-25 14:52:00,
2013-03-25 11:02:00,33.0,27.0,29.73,NNW,343,5.0,12.0,79,0.00,,,0.00,,2013-03-25 15:02:00,
2013-03-25 11:12:00,33.0,27.0,29.73,NNW,343,5.0,12.0,79,0.00,,,0.00,,2013-03-25 15:12:00,
2013-03-25 11:23:00,34.0,28.0,29.73,North,5,4.0,11.0,77,0.00,,,0.00,,2013-03-25 15:23:00,
2013-03-25 11:33:00,35.0,29.0,29.74,North,360,4.0,9.0,77,0.00,,,0.00,,2013-03-25 15:33:00,
2013-03-25 11:42:00,35.0,29.0,29.74,North,360,4.0,9.0,77,0.00,,,0.00,,2013-03-25 15:42:00,
2013-03-25 11:53:00,35.0,28.0,29.75,NNE,21,4.0,8.0,74,0.00,,,0.00,,2013-03-25 15:53:00,
2013-03-25 12:03:00,35.0,28.0,29.75,NNW,339,5.0,15.0,75,0.00,,,0.00,,2013-03-25 16:03:00,
2013-03-25 12:12:00,35.0,28.0,29.75,NNW,339,5.0,15.0,75,0.00,,,0.00,,2013-03-25 16:12:00,
2013-03-25 12:23:00,35.0,28.0,29.75,NNW,339,5.0,15.0,75,0.00,,,0.00,,2013-03-25 16:23:00,
2013-03-25 12:33:00,35.0,27.0,29.76,NNE,14,6.0,11.0,73,0.00,,,0.00,,2013-03-25 16:33:00,
2013-03-25 12:43:00,35.0,27.0,29.76,NNE,14,6.0,11.0,73,0.00,,,0.00,,2013-03-25 16:43:00,
2013-03-25 12:53:00,35.0,27.0,29.77,North,349,6.0,14.0,73,0.00,,,0.00,,2013-03-25 16:53:00,
2013-03-25 13:02:00,35.0,28.0,29.78,NNW,338,4.0,11.0,74,0.00,,,0.00,,2013-03-25 17:02:00,
2013-03-25 13:12:00,35.0,28.0,29.78,NNW,338,4.0,11.0,74,0.00,,,0.00,,2013-03-25 17:12:00,
2013-03-25 13:23:00,35.0,28.0,29.78,NNW,341,6.0,13.0,76,0.00,,,0.00,,2013-03-25 17:23:00,
2013-03-25 13:33:00,35.0,28.0,29.78,North,351,6.0,11.0,75,0.00,,,0.00,,2013-03-25 17:33:00,
2013-03-25 13:42:00,35.0,28.0,29.78,North,351,6.0,11.0,75,0.00,,,0.00,,2013-03-25 17:42:00,
2013-03-25 13:52:00,35.0,27.0,29.79,NNE,14,7.0,11.0,73,0.00,,,0.00,,2013-03-25 17:52:00,
2013-03-25 14:03:00,35.0,27.0,29.80,NNE,18,5.0,11.0,73,0.00,,,0.00,,2013-03-25 18:03:00,
2013-03-25 14:12:00,35.0,27.0,29.80,NNE,18,5.0,11.0,73,0.00,,,0.00,,2013-03-25 18:12:00,
2013-03-25 14:22:00,35.0,27.0,29.80,NNE,17,7.0,14.0,73,0.00,,,0.00,,2013-03-25 18:22:00,
2013-03-25 14:33:00,35.0,28.0,29.80,NNW,344,5.0,11.0,74,0.00,,,0.00,,2013-03-25 18:33:00,
2013-03-25 14:42:00,35.0,28.0,29.80,NNW,344,5.0,11.0,74,0.00,,,0.00,,2013-03-25 18:42:00,
2013-03-25 14:52:00,35.0,28.0,29.81,NNW,332,6.0,13.0,75,0.00,,,0.00,,2013-03-25 18:52:00,
2013-03-25 15:03:00,35.0,28.0,29.81,NNW,347,7.0,16.0,75,0.00,,,0.00,,2013-03-25 19:03:00,
2013-03-25 15:12:00,35.0,28.0,29.81,NNW,347,7.0,16.0,75,0.00,,,0.00,,2013-03-25 19:12:00,
2013-03-25 15:23:00,35.0,28.0,29.82,NNW,335,8.0,14.0,75,0.00,,,0.00,,2013-03-25 19:23:00,
2013-03-25 15:33:00,35.0,28.0,29.82,NNW,331,10.0,17.0,75,0.00,,,0.00,,2013-03-25 19:33:00,
2013-03-25 15:42:00,35.0,28.0,29.82,NNW,331,10.0,17.0,75,0.00,,,0.00,,2013-03-25 19:42:00,
2013-03-25 15:52:00,35.0,28.0,29.82,NW,325,10.0,17.0,76,0.00,,,0.00,,2013-03-25 19:52:00,
2013-03-25 16:02:00,35.0,28.0,29.83,North,5,8.0,15.0,76,0.00,,,0.00,,2013-03-25 20:02:00,
2013-03-25 16:12:00,35.0,28.0,29.83,North,5,8.0,15.0,76,0.00,,,0.00,,2013-03-25 20:12:00,
2013-03-25 16:22:00,35.0,28.0,29.83,NNW,339,8.0,13.0,76,0.00,,,0.00,,2013-03-25 20:22:00,
2013-03-25 16:32:00,35.0,29.0,29.84,NNW,347,6.0,12.0,77,0.00,,,0.00,,2013-03-25 20:32:00,
2013-03-25 16:42:00,35.0,29.0,29.84,NNW,347,6.0,12.0,77,0.00,,,0.00,,2013-03-25 20:42:00,
2013-03-25 16:52:00,35.0,28.0,29.85,NW,316,10.0,18.0,76,0.00,,,0.00,,2013-03-25 20:52:00,
2013-03-25 17:02:00,35.0,29.0,29.85,NW,305,5.0,13.0,77,0.00,,,0.00,,2013-03-25 21:02:00,
2013-03-25 17:12:00,35.0,29.0,29.85,NW,305,5.0,13.0,77,0.00,,,0.00,,2013-03-25 21:12:00,
2013-03-25 17:22:00,35.0,28.0,29.86,NNW,346,6.0,14.0,75,0.00,,,0.00,,2013-03-25 21:22:00,
2013-03-25 17:33:00,36.0,29.0,29.87,NNW,342,7.0,16.0,76,0.00,,,0.00,,2013-03-25 21:33:00,
2013-03-25 17:42:00,36.0,29.0,29.87,NNW,342,7.0,16.0,76,0.00,,,0.00,,2013-03-25 21:42:00,
2013-03-25 17:52:00,36.0,29.0,29.87,NNW,334,7.0,11.0,76,0.00,,,0.00,,2013-03-25 21:52:00,
2013-03-25 18:03:00,36.0,29.0,29.88,NNW,337,8.0,14.0,77,0.00,,,0.00,,2013-03-25 22:03:00,
2013-03-25 18:12:00,36.0,29.0,29.88,NNW,337,8.0,14.0,77,0.00,,,0.00,,2013-03-25 22:12:00,
2013-03-25 18:23:00,36.0,29.0,29.89,NNW,333,6.0,13.0,75,0.00,,,0.00,,2013-03-25 22:23:00,
2013-03-25 18:33:00,36.0,29.0,29.89,NNW,334,6.0,18.0,75,0.00,,,0.00,,2013-03-25 22:33:00,
2013-03-25 18:42:00,36.0,29.0,29.89,NNW,334,6.0,18.0,75,0.00,,,0.00,,2013-03-25 22:42:00,
2013-03-25 18:52:00,37.0,30.0,29.90,NNW,338,4.0,12.0,75,0.00,,,0.00,,2013-03-25 22:52:00,
2013-03-25 19:03:00,36.0,29.0,29.91,NNW,345,6.0,14.0,76,0.00,,,0.00,,2013-03-25 23:03:00,
2013-03-25 19:12:00,36.0,29.0,29.91,NNW,345,6.0,14.0,76,0.00,,,0.00,,2013-03-25 23:12:00,
2013-03-25 19:23:00,35.0,28.0,29.92,NNW,338,8.0,15.0,76,0.00,,,0.00,,2013-03-25 23:23:00,
2013-03-25 19:32:00,35.0,29.0,29.93,NNW,348,3.0,14.0,78,0.00,,,0.00,,2013-03-25 23:32:00,
2013-03-25 19:42:00,35.0,29.0,29.93,NNW,348,3.0,14.0,78,0.00,,,0.00,,2013-03-25 23:42:00,
2013-03-25 19:52:00,35.0,29.0,29.93,NNW,334,7.0,13.0,79,0.00,,,0.00,,2013-03-25 23:52:00,
2013-03-25 20:02:00,34.0,28.0,29.95,NNW,336,6.0,13.0,80,0.00,,,0.00,,2013-03-26 00:02:00,
2013-03-25 20:12:00,34.0,28.0,29.95,NNW,336,6.0,13.0,80,0.00,,,0.00,,2013-03-26 00:12:00,
2013-03-25 20:22:00,34.0,29.0,29.95,NW,308,5.0,10.0,82,0.00,,,0.00,,2013-03-26 00:22:00,
2013-03-25 20:32:00,34.0,29.0,29.96,NNW,336,4.0,10.0,82,0.00,,,0.00,,2013-03-26 00:32:00,
2013-03-25 20:42:00,34.0,29.0,29.96,NNW,336,4.0,10.0,82,0.00,,,0.00,,2013-03-26 00:42:00,
2013-03-25 20:52:00,34.0,29.0,29.96,NW,315,6.0,12.0,82,0.00,,,0.00,,2013-03-26 00:52:00,
2013-03-25 21:02:00,34.0,29.0,29.97,NNW,330,4.0,10.0,82,0.00,,,0.00,,2013-03-26 01:02:00,
2013-03-25 21:12:00,34.0,29.0,29.97,NNW,330,4.0,10.0,82,0.00,,,0.00,,2013-03-26 01:12:00,
2013-03-25 21:22:00,34.0,29.0,29.98,NNW,333,6.0,12.0,82,0.00,,,0.00,,2013-03-26 01:22:00,
2013-03-25 21:32:00,34.0,29.0,29.98,NW,318,4.0,10.0,82,0.00,,,0.00,,2013-03-26 01:32:00,
2013-03-25 21:42:00,34.0,29.0,29.98,NW,318,4.0,10.0,82,0.00,,,0.00,,2013-03-26 01:42:00,
2013-03-25 21:52:00,34.0,29.0,29.99,NNW,334,5.0,11.0,82,0.00,,,0.00,,2013-03-26 01:52:00,
2013-03-25 22:02:00,34.0,29.0,30.00,NNW,331,5.0,10.0,83,0.00,,,0.00,,2013-03-26 02:02:00,
2013-03-25 22:12:00,34.0,29.0,30.00,NNW,331,5.0,10.0,83,0.00,,,0.00,,2013-03-26 02:12:00,
2013-03-25 22:22:00,34.0,29.0,30.00,WNW,294,4.0,9.0,83,0.00,,,0.00,,2013-03-26 02:22:00,
2013-03-25 22:32:00,34.0,29.0,30.01,NNW,336,4.0,9.0,83,0.00,,,0.00,,2013-03-26 02:32:00,
2013-03-25 22:42:00,34.0,29.0,30.01,NNW,336,4.0,9.0,83,0.00,,,0.00,,2013-03-26 02:42:00,
2013-03-25 22:52:00,34.0,30.0,30.01,NW,318,4.0,9.0,84,0.00,,,0.00,,2013-03-26 02:52:00,
2013-03-25 23:02:00,34.0,30.0,30.02,North,355,5.0,9.0,84,0.00,,,0.00,,2013-03-26 03:02:00,
2013-03-25 23:12:00,34.0,30.0,30.02,North,355,5.0,9.0,84,0.00,,,0.00,,2013-03-26 03:12:00,
2013-03-25 23:22:00,34.0,30.0,30.02,NW,315,3.0,9.0,84,0.00,,,0.00,,2013-03-26 03:22:00,
2013-03-25 23:33:00,34.0,29.0,30.02,NNW,330,4.0,9.0,83,0.00,,,0.00,,2013-03-26 03:33:00,
2013-03-25 23:42:00,34.0,29.0,30.02,NNW,330,4.0,9.0,83,0.00,,,0.00,,2013-03-26 03:42:00,
2013-03-25 23:52:00,34.0,29.0,30.02,NNW,332,3.0,7.0,83,0.00,,,0.00,,2013-03-26 03:52:00,